EDT,Max TemperatureF,Mean TemperatureF,Min TemperatureF,Max Dew PointF,MeanDew PointF,Min DewpointF,Max Humidity, Mean Humidity, Min Humidity, Max Sea Level PressureIn, Mean Sea Level PressureIn, Min Sea Level PressureIn, Max VisibilityMiles, Mean VisibilityMiles, Min VisibilityMiles, Max Wind SpeedMPH, Mean Wind SpeedMPH, Max Gust SpeedMPH,PrecipitationIn, CloudCover, Events, WindDirDegrees
2013-4-1,82,77,72,72,71,69,87,78,69,30.08,30.04,29.99,10,10,7,13,7,15,0.00,0,,135
2013-4-2,83,77,70,71,68,64,93,74,55,30.11,30.06,30.02,10,10,9,12,4,16,0.00,0,,25
2013-4-3,82,78,73,72,70,66,87,81,74,30.07,30.02,29.96,10,10,10,18,11,28,0.00,1,,107
2013-4-4,83,80,76,74,72,70,94,80,65,30.04,29.99,29.93,10,10,9,15,9,21,0.00,2,,129
2013-4-5,78,73,67,74,66,60,90,82,73,30.01,29.93,29.84,10,8,1,24,12,31,1.41,7,Rain-Thunderstorm,360
2013-4-6,73,70,66,63,59,55,78,70,61,30.10,30.04,29.98,10,10,10,20,11,26,0.00,3,,358
2013-4-7,82,76,69,68,66,64,84,73,62,30.10,30.06,30.00,10,10,10,20,13,24,0.00,2,,83
2013-4-8,82,79,75,71,68,65,79,74,69,30.11,30.06,30.02,10,10,10,18,13,23,0.00,1,,103
2013-4-9,83,79,75,72,70,67,82,76,69,30.12,30.07,30.04,10,10,10,20,13,26,0.00,1,,93
2013-4-10,84,80,76,75,72,70,87,81,74,30.07,30.01,29.96,10,10,10,23,14,28,0.00,3,,98
2013-4-11,84,81,78,75,74,72,91,83,74,29.99,29.93,29.87,10,10,9,21,15,25,0.02,3,Rain,129
2013-4-12,84,82,79,76,75,73,91,83,74,29.98,29.93,29.88,10,10,10,20,9,25,0.00,1,,145
2013-4-13,86,83,79,76,74,71,91,78,65,29.99,29.94,29.89,10,10,10,17,7,22,0.00,2,,177
2013-4-14,86,83,79,75,73,72,85,75,65,29.97,29.93,29.88,10,10,10,17,12,24,0.00,1,,127
2013-4-15,87,84,80,76,74,68,85,70,55,30.05,29.99,29.93,10,10,9,14,6,16,0.00,1,,161
2013-4-16,87,84,81,76,74,70,85,73,61,30.09,30.05,30.01,10,10,10,16,11,21,0.00,1,,96
2013-4-17,87,84,80,73,72,70,74,68,61,30.08,30.04,30.00,10,10,10,18,12,24,0.00,0,,95
2013-4-18,86,83,79,74,72,71,85,73,61,30.04,29.99,29.94,10,10,10,24,16,30,0.00,2,,113
2013-4-19,87,84,80,74,73,71,79,71,63,30.04,30.00,29.96,10,10,10,22,14,28,0.00,1,,132
2013-4-20,87,81,75,76,75,73,85,74,63,30.09,30.02,29.97,10,10,6,24,7,37,0.49,2,Rain-Thunderstorm,255
2013-4-21,85,80,74,75,71,66,88,75,61,30.08,30.04,29.99,10,9,2,22,8,30,0.03,2,Rain-Thunderstorm,111
2013-4-22,84,80,75,73,71,66,87,77,67,30.07,30.00,29.94,10,10,10,21,6,28,0.02,4,Rain-Thunderstorm,101
2013-4-23,87,82,76,72,69,66,82,67,51,30.06,30.01,29.96,10,10,10,21,11,25,0.00,3,,52
2013-4-24,85,80,75,69,66,63,69,62,55,30.12,30.07,30.03,10,10,10,20,12,24,0.00,0,,82
2013-4-25,85,81,76,65,63,59,64,54,43,30.19,30.14,30.08,10,10,10,16,10,22,0.00,1,,67
2013-4-26,84,79,74,65,63,62,69,60,51,30.21,30.17,30.11,10,10,10,21,10,25,0.00,0,,72
2013-4-27,83,79,74,68,64,63,71,61,51,30.19,30.12,30.06,10,10,10,18,11,25,0.00,1,,77
2013-4-28,85,81,76,70,68,67,79,69,58,30.07,30.02,29.97,10,10,10,21,14,26,0.00,4,,94
2013-4-29,83,79,74,74,71,68,82,76,69,30.01,29.97,29.92,10,9,2,23,12,30,0.24,5,Rain-Thunderstorm,117
2013-4-30,84,81,77,73,72,71,85,77,69,29.99,29.94,29.91,10,10,10,18,11,26,0.00,2,,150